Location: Hawks Ness
(60.2333°N, 1.1667°W)
Time: 14:37:09
(UTC+00:00)

Cosmos 2344 - Pass Details

Date: 22 October 2019
Orbit: 1259 x 2983 km, 63.3° (Epoch: 11 November)

Event Time Altitude Azimuth Distance (km) Brightness Sun altitude
Exits shadow 04:05:47 19° 298° (WNW) 3,062 5.2 -22.2°
Maximum altitude 04:12:50 69° 221° (SW) 1,880 4.2 -21.3°
Drops below altitude 10° 04:24:57 10° 142° (SE) 4,844 6.9 -19.9°
Sets 04:29:02 0° 140° (SE) 6,082 7.5 -19.4°
